Temp
18 19 19 20 20 21 21 22 23 23 24 24 24 24 25 25 25 25 26 26 26 26 25 25 25 27 27 27 29 29 28 32 33 32 31 32 32 30 30 29 29 29 27 26 25
18 19 20 20 20 21 21 22 23 23 24 24 24 24 25 25 26 24 27 27 26 26 26 26 28 29 29 28 27 29 29 34 34 33 32 32 32 31 30 30 29 28 27 25 25
19 19 20 20 21 21 22 22 23 23 24 24 24 25 25 25 25 28 28 26 26 26 26 27 25 24 20 26 29 30 33 34 34 33 33 32 32 31 31 30 30 28 26 26 25
19 19 20 20 21 21 22 22 23 23 24 24 24 25 25 25 30 28 28 27 26 25 24 28 25 19 21 29 31 31 35 34 34 33 33 33 32 32 32 31 29 28 26 26 26
19 19 20 20 21 21 22 22 23 24 24 24 25 25 25 25 28 28 27 27 26 26 27 30 22 21 23 29 28 31 35 34 34 33 33 33 33 32 31 31 29 28 27 27 27
19 20 20 20 21 22 22 23 23 24 24 24 25 25 25 28 28 28 28 27 27 27 29 31 32 32 31 30 30 35 35 35 33 33 34 33 32 32 31 30 29 28 27 27 27
19 20 20 21 21 22 22 23 23 24 24 24 25 25 23 29 29 27 27 27 28 29 30 32 31 31 29 27 34 35 34 35 34 34 33 33 33 32 30 30 29 28 28 28 28
20 20 20 21 21 22 23 23 24 24 24 25 25 25 27 28 29 29 28 28 29 29 30 31 31 31 29 30 31 29 24 24 34 35 33 32 31 32 30 30 30 29 28 28 28
20 20 21 21 22 22 23 23 24 24 24 25 25 26 30 29 28 29 29 29 30 30 30 31 31 32 26 22 24 30 22 23 29 35 34 32 29 32 31 30 30 29 29 28 28
20 21 21 21 22 22 23 24 24 24 25 25 25 26 29 30 30 30 30 30 31 31 31 32 33 30 25 21 22 29 31 32 31 33 34 34 32 33 32 32 31 30 29 29 28
20 21 21 22 22 23 23 23 23 24 24 29 30 30 31 31 30 30 30 30 30 31 32 34 34 29 28 29 31 33 33 33 32 33 30 33 33 33 33 33 32 31 30 29 29
20 21 22 22 22 23 23 23 28 28 30 28 30 31 31 31 31 31 31 31 31 32 34 34 34 34 33 30 34 35 34 33 34 34 34 23 32 34 34 33 33 32 31 30 29
20 21 22 22 23 23 24 25 27 28 30 31 31 31 31 31 32 32 31 31 33 32 33 33 33 35 35 35 34 35 34 33 33 34 34 32 32 31 33 34 33 33 32 31 30
21 21 22 22 24 24 25 26 27 28 29 32 31 31 32 31 32 33 32 32 33 33 34 34 36 34 34 34 35 35 35 35 35 34 32 33 29 29 28 32 34 34 33 32 31
21 21 22 22 23 25 28 27 27 28 28 33 33 32 32 32 34 32 32 32 33 34 34 34 34 34 34 34 36 34 35 35 35 34 35 35 31 31 32 32 34 35 34 34 32
21 22 22 23 23 25 26 27 27 29 30 33 33 32 33 32 33 33 32 32 33 33 34 34 35 35 35 36 36 35 34 35 35 35 34 34 35 31 24 33 36 36 35 34 34
22 22 23 23 25 25 26 27 29 29 34 33 33 33 33 33 33 33 32 31 31 30 31 33 34 35 35 34 35 35 34 33 33 34 33 36 35 34 28 36 36 36 36 35 35
22 22 23 24 23 24 26 28 28 34 35 35 34 34 33 34 33 33 33 32 33 33 34 33 33 35 36 34 34 34 35 33 32 33 33 36 34 35 37 37 37 36 35 35 35
21 22 23 24 24 24 27 28 30 34 35 34 35 33 33 34 35 34 33 33 34 34 32 34 34 37 36 36 35 34 33 36 34 35 35 36 36 36 37 37 36 35 34 35 35
21 22 26 25 24 24 27 26 32 33 33 34 33 34 33 34 34 34 34 35 35 36 35 34 32 35 36 35 35 35 36 34 34 32 31 35 35 34 35 35 36 36 34 34 34
22 25 26 25 25 26 28 30 33 33 31 32 32 33 34 35 35 34 34 35 35 35 35 35 34 34 34 33 33 34 33 34 35 34 33 33 31 35 35 36 35 36 34 33 34
21 27 26 25 26 28 29 31 31 33 31 31 32 32 33 34 34 35 34 35 35 35 33 34 34 33 34 36 36 35 35 35 33 32 34 34 33 37 36 36 34 32 32 31 31
21 27 26 26 27 30 31 32 31 31 31 31 31 32 33 32 31 33 34 32 32 33 31 33 32 31 32 35 36 34 35 35 35 35 33 33 34 36 36 35 33 32 31 30 30
20 28 27 26 27 29 30 31 30 29 29 30 30 31 30 31 32 31 33 32 31 31 28 29 31 32 32 33 34 33 34 34 34 33 33 34 34 35 34 34 33 31 30 29 29
22 27 26 28 29 30 30 30 30 29 28 29 29 30 30 30 30 31 32 32 31 28 29 31 29 31 32 32 33 33 33 34 33 33 32 33 33 34 32 32 32 30 29 28 27
20 22 22 26 27 27 24 28 28 30 28 28 27 29 30 28 28 28 28 30 30 30 30 30 28 30 29 31 31 31 32 33 33 33 33 33 32 34 32 31 29 29 28 27 26
17 19 21 24 27 27 27 28 27 27 27 26 26 27 27 25 25 25 26 27 28 28 28 28 28 27 27 30 30 29 31 31 32 32 32 31 32 33 30 29 28 28 26 25 24
Height
1502 1500 1499 1497 1495 1495 1496 1496 1495 1495 1496 1495 1494 1494 1495 1494 1493 1493 1492 1493 1493 1491 1490 1486 1482 1485 1491 1492 1483 1476 1478 1467 1465 1472 1479 1479 1480 1487 1492 1496 1502 1504 1511 1518 1525
1502 1500 1499 1497 1495 1495 1495 1495 1495 1495 1496 1496 1495 1495 1494 1493 1492 1492 1492 1491 1491 1490 1486 1482 1483 1488 1488 1478 1477 1474 1475 1461 1462 1467 1474 1479 1484 1488 1494 1497 1501 1506 1513 1520 1525
1502 1501 1499 1497 1496 1494 1494 1494 1495 1495 1495 1496 1495 1495 1494 1493 1493 1489 1489 1490 1490 1489 1485 1486 1487 1488 1489 1484 1469 1467 1463 1459 1467 1471 1475 1481 1485 1488 1492 1498 1501 1508 1516 1520 1524
1502 1501 1499 1497 1496 1495 1494 1494 1494 1495 1495 1495 1495 1495 1495 1495 1489 1487 1487 1489 1490 1489 1487 1490 1490 1512 1501 1483 1469 1469 1458 1462 1468 1474 1474 1479 1483 1486 1487 1494 1501 1509 1515 1520 1523
1502 1500 1499 1497 1496 1495 1494 1494 1494 1494 1494 1495 1495 1495 1495 1495 1489 1486 1487 1488 1488 1489 1488 1486 1490 1486 1495 1480 1471 1467 1461 1466 1469 1474 1476 1479 1482 1488 1492 1496 1503 1510 1515 1519 1522
1502 1500 1498 1497 1496 1495 1494 1494 1493 1494 1494 1494 1495 1495 1496 1495 1488 1486 1487 1487 1488 1490 1488 1484 1481 1477 1477 1475 1469 1460 1461 1466 1471 1476 1474 1479 1485 1487 1495 1497 1504 1511 1515 1518 1520
1501 1500 1498 1496 1495 1495 1494 1493 1493 1493 1494 1494 1495 1496 1496 1492 1490 1487 1487 1488 1489 1489 1485 1483 1482 1480 1487 1490 1466 1464 1467 1467 1470 1472 1475 1476 1481 1487 1495 1497 1503 1511 1514 1516 1519
1501 1499 1497 1496 1495 1494 1494 1493 1493 1493 1494 1494 1495 1496 1493 1489 1489 1489 1488 1488 1488 1487 1487 1484 1482 1481 1479 1479 1476 1480 1500 1513 1472 1469 1477 1479 1492 1488 1494 1498 1502 1508 1512 1515 1518
1500 1498 1497 1495 1494 1494 1493 1493 1493 1493 1494 1495 1496 1496 1489 1486 1487 1487 1488 1488 1487 1486 1484 1482 1484 1484 1492 1497 1501 1487 1525 1518 1489 1467 1471 1478 1491 1485 1491 1496 1501 1506 1510 1513 1516
1499 1497 1496 1495 1494 1494 1494 1493 1493 1494 1494 1495 1495 1499 1487 1484 1484 1485 1487 1487 1485 1484 1482 1480 1477 1483 1495 1508 1531 1497 1487 1479 1484 1472 1467 1468 1476 1480 1484 1488 1496 1500 1506 1510 1513
1498 1496 1495 1494 1494 1494 1494 1494 1496 1496 1493 1486 1482 1481 1480 1481 1483 1485 1485 1486 1486 1483 1478 1471 1470 1491 1487 1486 1479 1470 1475 1474 1473 1468 1475 1468 1469 1473 1479 1483 1489 1495 1500 1505 1509
1497 1495 1493 1493 1493 1493 1493 1493 1489 1489 1485 1484 1481 1481 1480 1481 1482 1482 1484 1486 1483 1480 1472 1469 1470 1466 1466 1476 1468 1462 1465 1474 1464 1463 1467 1493 1470 1464 1469 1477 1481 1488 1494 1499 1505
1496 1494 1493 1492 1492 1492 1491 1491 1491 1489 1482 1473 1478 1479 1480 1482 1478 1478 1482 1481 1477 1477 1469 1470 1470 1464 1466 1465 1467 1458 1468 1472 1473 1460 1464 1474 1480 1472 1469 1468 1476 1480 1487 1494 1499
1494 1492 1491 1491 1494 1493 1492 1490 1491 1489 1484 1468 1472 1474 1476 1478 1476 1472 1477 1479 1476 1475 1468 1464 1459 1465 1467 1469 1461 1466 1459 1461 1460 1465 1481 1462 1501 1479 1471 1467 1467 1475 1479 1486 1492
1492 1491 1490 1490 1490 1490 1490 1491 1490 1489 1501 1460 1465 1468 1471 1474 1466 1473 1475 1477 1475 1471 1472 1470 1465 1466 1472 1467 1459 1466 1461 1462 1459 1463 1455 1455 1486 1471 1465 1467 1461 1465 1471 1476 1483
1489 1488 1488 1489 1488 1488 1489 1490 1491 1492 1489 1459 1461 1465 1467 1469 1467 1471 1475 1477 1475 1474 1468 1466 1462 1463 1464 1460 1460 1461 1466 1461 1457 1455 1474 1461 1459 1479 1491 1461 1455 1458 1465 1470 1475
1486 1485 1485 1485 1488 1489 1490 1491 1490 1490 1449 1455 1459 1460 1462 1465 1464 1468 1473 1476 1480 1489 1483 1468 1466 1462 1465 1469 1462 1465 1469 1483 1487 1476 1484 1450 1459 1458 1467 1452 1457 1459 1462 1465 1470
1483 1481 1481 1482 1484 1488 1490 1488 1495 1449 1442 1441 1448 1455 1463 1456 1461 1463 1468 1473 1470 1467 1467 1472 1475 1454 1457 1466 1468 1467 1465 1480 1499 1481 1481 1446 1467 1458 1445 1449 1453 1457 1461 1464 1466
1482 1481 1479 1480 1482 1486 1488 1487 1470 1449 1440 1445 1446 1455 1458 1451 1453 1458 1464 1463 1458 1461 1476 1466 1464 1445 1451 1457 1463 1468 1475 1454 1468 1456 1468 1451 1448 1443 1444 1448 1452 1458 1462 1461 1464
1481 1481 1479 1481 1482 1486 1483 1479 1454 1451 1452 1450 1456 1448 1455 1450 1455 1455 1458 1451 1453 1451 1457 1459 1474 1450 1451 1458 1460 1462 1457 1475 1468 1497 1499 1462 1459 1468 1453 1453 1454 1458 1465 1467 1467
1481 1477 1475 1479 1482 1482 1477 1466 1454 1451 1460 1460 1456 1450 1445 1443 1444 1453 1453 1446 1448 1448 1454 1456 1464 1459 1456 1465 1465 1465 1471 1467 1462 1465 1482 1482 1490 1451 1453 1452 1456 1458 1466 1468 1469
1483 1475 1474 1478 1480 1474 1468 1461 1456 1452 1460 1461 1457 1454 1450 1445 1446 1444 1450 1442 1444 1452 1460 1456 1458 1467 1459 1445 1447 1449 1451 1455 1475 1485 1467 1466 1473 1443 1450 1453 1459 1467 1472 1475 1476
1482 1470 1473 1476 1472 1463 1458 1454 1457 1459 1458 1459 1458 1455 1452 1456 1460 1448 1444 1455 1457 1457 1464 1461 1463 1477 1471 1450 1439 1451 1450 1452 1451 1451 1467 1478 1469 1445 1450 1455 1462 1469 1475 1479 1482
1485 1466 1468 1473 1468 1462 1454 1451 1459 1463 1467 1463 1462 1459 1461 1461 1456 1460 1451 1455 1461 1462 1468 1469 1466 1466 1474 1458 1451 1455 1451 1453 1458 1469 1466 1464 1458 1448 1454 1457 1463 1470 1476 1480 1484
1485 1469 1469 1462 1464 1461 1457 1454 1457 1461 1467 1467 1467 1464 1463 1465 1461 1458 1454 1453 1458 1463 1468 1467 1476 1468 1462 1455 1453 1453 1452 1451 1457 1458 1469 1459 1459 1451 1459 1463 1466 1471 1477 1481 1486
1488 1484 1479 1470 1468 1466 1464 1464 1463 1459 1466 1468 1471 1463 1460 1467 1467 1469 1464 1459 1460 1459 1465 1464 1475 1469 1472 1462 1460 1463 1455 1453 1455 1455 1457 1460 1462 1452 1459 1465 1472 1477 1480 1485 1489
1496 1492 1489 1475 1470 1469 1465 1463 1467 1468 1472 1474 1475 1473 1472 1478 1479 1476 1475 1473 1470 1469 1470 1471 1473 1477 1481 1465 1465 1470 1458 1459 1458 1455 1455 1466 1460 1455 1464 1470 1476 1479 1485 1489 1491
Wind_Speed
11 11 9 7 4 3 2 3 4 5 5 5 6 5 4 4 4 4 4 8 9 10 6 6 8 11 7 15 13 10 5 7 15 18 13 13 14 25 23 21 13 4 22 23 22
12 11 10 7 5 3 2 3 4 5 5 6 6 5 4 4 7 10 12 10 8 6 6 9 9 7 12 13 3 3 4 19 14 15 16 15 13 18 15 16 15 27 26 23 22
12 12 10 8 5 4 2 3 4 5 5 6 6 5 5 5 6 4 13 8 6 6 5 11 13 22 24 17 2 3 1 20 16 16 13 14 16 16 18 13 18 22 23 23 21
12 11 10 8 6 3 2 2 3 4 5 5 6 5 5 4 3 3 9 7 6 6 11 11 24 6 16 4 7 7 19 20 19 13 13 14 12 14 16 19 19 20 22 21 20
12 12 11 9 5 3 2 2 3 4 5 6 6 6 5 7 8 4 8 8 6 4 9 13 34 23 4 4 7 10 12 18 14 15 14 11 11 10 7 17 18 20 21 20 18
11 11 10 9 6 3 2 1 3 4 5 6 6 6 6 11 1 5 8 8 7 6 12 12 12 10 14 5 9 8 13 17 17 9 9 14 11 13 11 14 19 19 19 18 18
12 11 10 8 6 3 1 2 3 4 5 6 5 6 7 11 3 6 10 11 8 9 15 7 9 14 18 9 11 4 7 11 14 13 6 3 12 13 13 15 22 19 18 17 17
12 11 9 7 5 3 0 2 3 4 5 6 6 6 8 7 6 10 11 12 11 11 11 11 10 7 12 7 17 15 14 9 6 9 10 2 12 13 15 15 17 18 18 17 16
12 10 9 6 4 1 1 3 4 4 5 7 4 5 12 5 9 11 13 12 11 11 12 13 10 10 14 13 9 3 13 14 18 7 15 8 4 15 18 18 17 17 17 16 16
12 10 8 6 3 2 3 4 5 6 4 7 4 7 15 11 9 10 12 11 11 10 12 14 16 7 9 11 6 7 7 7 8 2 10 14 13 14 15 19 19 19 19 18 19
12 10 7 4 2 5 6 1 2 3 13 13 14 10 6 6 9 9 12 11 10 13 12 16 11 7 12 17 16 9 2 1 10 10 9 11 16 16 16 15 18 19 20 20 20
12 9 6 4 3 7 8 6 6 6 7 22 12 18 3 9 11 12 13 12 13 13 15 14 12 10 21 23 13 11 6 5 5 2 5 26 6 10 18 15 19 19 21 21 20
12 9 6 3 5 9 11 11 6 7 9 19 19 15 15 10 15 15 15 16 14 14 16 19 4 5 2 8 9 14 7 7 8 10 6 7 3 11 6 20 16 20 22 20 23
12 9 5 3 3 5 11 8 6 6 6 14 18 15 17 14 15 14 17 16 11 13 15 12 6 4 8 9 8 4 7 4 9 4 8 14 4 2 11 14 17 15 23 22 24
13 9 6 10 4 6 2 3 5 3 5 14 17 12 15 16 8 13 11 16 14 12 8 13 7 9 7 11 10 10 6 11 11 10 16 19 6 7 21 20 19 19 19 22 25
14 9 7 9 11 9 1 4 3 6 6 10 11 12 16 19 8 11 12 14 10 14 13 16 15 6 11 9 7 8 7 12 14 14 9 14 8 2 8 8 9 15 13 19 23
14 8 10 12 8 8 5 6 6 9 11 12 16 15 16 15 15 10 11 12 12 10 14 16 16 15 8 11 7 9 13 10 10 9 5 7 4 10 27 11 8 4 3 13 16
10 5 11 16 7 5 7 8 8 13 9 7 12 15 15 16 16 12 13 13 16 16 14 12 12 21 15 11 10 11 13 8 11 9 2 8 5 6 9 5 2 12 12 11 14
4 1 6 9 15 7 11 10 10 8 13 2 9 14 16 16 8 14 14 14 14 15 14 10 6 11 11 11 11 12 9 13 12 11 8 2 9 14 8 12 11 14 8 2 8
4 7 7 7 11 10 9 16 17 8 8 8 11 9 12 15 13 10 12 11 14 13 12 9 6 7 8 3 11 13 12 9 7 4 7 7 2 11 9 14 11 13 12 6 7
6 7 9 9 12 13 11 16 18 5 4 8 13 16 9 12 16 13 9 10 8 8 8 11 10 3 9 8 12 8 10 11 13 10 10 5 4 11 9 10 8 12 22 20 8
8 5 8 11 12 14 12 18 14 4 3 7 8 13 15 10 15 12 15 8 13 6 5 11 12 12 14 11 14 14 12 12 9 12 7 10 6 15 11 9 21 20 18 17 18
7 10 5 13 8 11 17 18 4 7 6 10 7 8 10 10 8 12 8 11 5 4 4 9 7 11 13 13 14 13 12 11 14 12 11 8 5 15 11 13 18 18 13 12 11
7 4 8 12 19 15 12 14 11 6 11 7 11 10 6 10 12 6 11 10 7 3 9 3 14 15 12 13 16 10 11 8 14 11 12 11 14 7 11 7 17 18 13 10 10
6 5 6 1 11 13 14 10 10 9 8 1 8 11 11 12 12 13 13 12 8 9 5 6 15 16 17 21 20 19 16 10 11 11 12 13 15 13 12 8 12 16 12 11 12
9 8 14 16 5 8 2 8 9 1 3 6 5 14 3 4 10 14 12 6 13 10 8 8 14 14 19 18 21 22 19 18 15 18 16 16 19 17 9 12 12 11 12 11 12
14 8 10 8 7 8 5 3 4 6 4 5 9 9 6 11 13 13 11 13 12 9 7 10 10 11 16 16 16 20 15 16 20 21 20 18 14 13 12 13 8 5 11 10 11
Wind_Direction
13 14 7 358 348 307 238 218 229 217 210 218 234 246 253 249 231 234 246 248 230 266 235 227 256 250 274 306 295 295 317 36 99 100 102 123 117 116 130 123 143 156 146 143 146
8 10 7 2 349 312 267 206 216 227 215 214 226 234 251 254 248 251 255 266 244 222 208 230 256 274 232 203 209 332 273 75 87 123 120 129 125 123 136 133 117 116 124 143 149
5 5 5 5 355 327 277 236 208 219 221 215 218 225 232 251 281 220 223 225 203 182 214 283 18 10 319 327 206 214 176 78 89 104 110 103 136 145 136 146 144 135 142 151 155
0 1 3 3 358 335 299 247 217 209 217 211 219 224 236 245 326 229 194 204 198 208 264 274 111 279 250 212 313 275 81 97 113 132 139 115 149 130 181 139 146 148 155 157 161
355 355 359 359 359 342 315 247 221 198 203 206 213 223 235 260 251 221 181 195 219 194 269 279 138 206 113 131 243 286 100 100 96 86 113 126 124 111 94 130 139 151 159 163 166
354 351 353 355 353 355 310 229 217 192 189 205 212 223 239 258 205 183 189 206 210 242 262 282 347 309 126 172 175 150 109 121 98 122 116 106 126 134 134 146 144 156 165 168 168
351 347 350 351 347 345 244 203 201 185 190 198 205 228 251 266 205 228 196 217 239 251 288 313 326 19 47 282 253 108 141 134 135 166 112 117 133 101 140 159 153 165 175 176 171
347 343 344 346 341 329 230 184 177 194 181 199 197 219 263 212 218 220 211 230 246 259 274 300 304 293 157 306 327 44 22 352 250 137 117 332 108 126 144 150 158 169 181 182 178
342 340 340 340 338 2 91 155 161 180 182 180 176 237 253 239 217 223 212 225 246 263 267 278 290 351 56 42 1 46 167 222 261 159 145 134 189 140 160 156 166 176 182 187 186
338 336 336 332 330 162 140 141 149 160 183 178 203 245 226 227 204 203 209 219 261 256 257 256 261 124 98 108 239 255 236 124 209 219 196 185 158 148 173 163 171 184 183 188 189
336 332 329 321 272 185 173 110 206 223 206 202 194 224 148 159 175 212 207 215 242 258 258 248 273 156 145 210 210 233 131 18 145 179 237 242 152 165 167 187 170 182 186 189 197
334 328 319 298 235 203 206 223 337 331 237 229 266 216 216 195 199 213 201 211 221 243 229 247 242 175 172 208 250 283 208 48 159 245 302 340 41 179 163 191 182 184 183 193 193
332 322 304 271 234 217 220 267 302 313 268 203 211 219 211 206 231 200 199 213 236 225 260 263 270 340 253 260 239 266 113 172 229 188 194 186 107 289 275 173 201 188 183 193 193
328 316 292 222 204 226 246 273 274 306 276 178 200 223 199 208 229 221 202 218 232 264 260 287 236 92 291 245 295 332 0 284 280 221 247 169 184 315 289 257 171 205 183 188 192
323 307 266 203 201 206 93 219 274 253 269 129 174 208 182 203 152 195 193 220 253 229 270 265 232 260 240 266 295 305 38 307 313 276 269 211 107 203 210 238 174 189 196 198 186
320 296 251 222 228 192 273 261 268 235 242 158 145 187 193 212 194 140 207 222 242 261 270 262 298 305 290 248 273 291 299 253 242 248 272 143 252 57 28 241 175 172 190 197 196
320 280 229 208 194 229 240 232 222 248 141 151 171 193 206 194 224 173 194 202 222 217 243 240 248 250 217 270 244 240 258 259 229 238 169 109 282 136 191 157 114 106 214 183 200
319 265 220 203 206 236 205 226 253 258 200 116 167 186 206 202 215 185 203 217 219 241 279 243 232 206 210 222 255 212 260 294 309 333 190 184 121 96 69 74 155 177 212 240 203
298 273 214 214 204 194 220 224 236 297 3 151 174 187 204 221 215 197 214 224 225 211 256 297 253 124 194 198 225 259 269 289 313 303 275 253 88 125 119 124 99 59 32 334 227
263 237 216 187 185 195 227 242 260 349 350 328 279 211 234 206 187 226 205 225 235 203 214 282 287 185 188 226 263 263 279 280 213 262 273 266 208 115 148 123 104 99 98 74 91
271 243 158 171 181 213 228 239 247 179 15 272 277 288 260 264 196 227 216 208 222 198 214 245 250 234 137 215 247 192 237 251 285 303 306 283 55 140 125 111 105 109 46 29 45
291 266 156 171 198 225 234 243 275 312 147 264 278 292 306 301 279 216 247 333 173 208 253 244 270 252 231 213 209 258 269 199 224 227 266 301 86 106 111 117 86 72 54 35 14
284 276 176 193 225 227 223 247 212 289 250 264 250 258 298 288 310 311 301 87 83 216 32 345 250 249 256 264 209 216 239 259 284 292 285 286 109 124 137 111 92 88 69 48 19
293 253 160 212 251 291 288 230 243 178 291 318 296 329 295 267 269 270 290 152 127 66 13 317 270 289 282 296 337 315 203 240 268 259 250 240 264 300 75 82 114 95 78 61 46
248 307 7 255 219 254 269 314 244 187 197 316 274 252 267 276 262 253 236 262 157 151 224 253 257 277 285 293 301 303 300 280 241 262 269 294 311 320 76 63 36 79 71 68 55
337 354 340 287 293 323 317 254 276 249 135 294 228 293 327 287 330 343 360 3 315 141 207 240 260 266 275 283 290 289 289 287 281 282 287 284 285 301 62 85 57 45 59 56 48
349 321 284 296 262 253 289 238 202 341 73 317 335 340 276 20 337 327 321 314 316 331 317 302 313 310 281 289 291 271 265 267 270 274 269 263 290 279 72 57 37 73 61 40 37